Regional Weather Roundup
Issued by NWS Sioux Falls, SD

Home | Current Version | Previous Version | Text Only | Print | Product List | Glossary Off
Versions: 1 2 3 4 5 6 7 8 9 10 11 12 13 14 15 16 17 18 19 20 21 22 23 24 25 26 27 28 29 30 31 32 33 34 35 36 37 38 39 40 41 42 43 44 45 46 47 48 49 50

000
ASUS43 KFSD 291810
RWRFSD

WEATHER ROUNDUP FOR SE SOUTH DAKOTA/SW MINNESOTA/NW IOWA
NATIONAL WEATHER SERVICE SIOUX FALLS SD
100 PM CDT FRI MAY 29 2015

NOTE: "FAIR" INDICATES FEW OR NO CLOUDS BELOW 12,000 FEET WITH NO
SIGNIFICANT WEATHER AND OR OBSTRUCTIONS TO VISIBILITY.


SDZ038>040-050-052>070-291900-
SOUTHEAST SOUTH DAKOTA

CITY           SKY/WX    TMP DP  RH WIND       PRES   REMARKS
BROOKINGS      CLOUDY    52  48  87 N17G24    30.01R
CHAMBERLAIN    LGT RAIN  51  50  95 N21G29    30.08R
6HR MIN TEMP:  51; 6HR MAX TEMP:  61; 6HR PCP:  1.13;

HURON            N/A    N/A N/A N/A MISG      30.06R
MADISON        HVY RAIN  54  54 100 N24G30    29.98R
MITCHELL       LGT RAIN  55  53  93 N25G32    30.02R FOG
6HR MIN TEMP:  55; 6HR MAX TEMP:  64; 6HR PCP:  0.21;

SIOUX FALLS    LGT RAIN  60  57  89 N16G29    29.93R
6HR MIN TEMP:  60; 6HR MAX TEMP:  70; 6HR PCP:  0.09;

WINNER         LGT RAIN  55  51  86 N20       30.10R FOG
YANKTON        PTSUNNY   70  61  73 NW9       29.90R
$$

MNZ071-072-080-081-089-090-097-098-291900-
SOUTHWEST MINNESOTA

CITY           SKY/WX    TMP DP  RH WIND       PRES   REMARKS
FAIRMONT       CLOUDY    70  61  73 W5        29.90S
JACKSON        CLOUDY    70  64  83 W3        29.91S
LUVERNE        RAIN      63  59  88 N13G24    29.93R
MARSHALL       CLOUDY    52  46  82 N23G30    29.97R
6HR MIN TEMP:  52; 6HR MAX TEMP:  64; 6HR PCP:  0.30;

MONTEVIDEO     LGT RAIN  54  54 100 N15       29.98R
PIPESTONE      RAIN      55  52  88 NE15G25   29.96R
REDWOOD FALLS  HVY RAIN  63  61  93 N10G21    29.92R FOG
TRACY          RAIN      56  55  97 NW16G25   29.96R
WINDOM         DRIZZLE   66  63  88 CALM      29.91F
WORTHINGTON    CLOUDY    64  59  82 NW10      29.91S
$$

IAZ001>003-012>014-020>022-031-032-NEZ013-014-SDZ071-291900-
NORTHWEST IOWA

CITY           SKY/WX    TMP DP  RH WIND       PRES   REMARKS
CHEROKEE       CLOUDY    72  65  78 W6        29.89S
DENISON        CLOUDY    73  68  83 S8G15     29.89S
ESTHERVILLE    CLOUDY    68  64  87 W10       29.89S
LE MARS        CLOUDY    72  63  73 SW5       29.91S
ORANGE CITY    CLOUDY    66  61  82 W5        29.91R
SHELDON        CLOUDY    68  66  94 N6        29.89R
SIOUX CITY     CLOUDY    75  60  59 W6        29.90S
6HR MIN TEMP:  66; 6HR MAX TEMP:  75;

SPENCER        CLOUDY    73  64  73 SW10      29.89F
6HR MIN TEMP:  65; 6HR MAX TEMP:  73; 6HR PCP:  0.02;

STORM LAKE     CLOUDY    75  61  60 W12G18    29.91R
$$

ABBREVIATIONS USED IN REMARKS
   TC - TEMPERATURE IN CELSIUS
  WCI - WIND CHILL INDEX
   HX - HEAT INDEX
  VSB - VISIBILITY



USA.gov is the U.S. government's official web portal to all federal, state and local government web resources and services.